Home > Weather > Arctic Bay > Past weeks

Flag for Canada Past Weather in Arctic Bay, Nunavut, Canada — Yesterday and Last 2 Weeks

Now
23 °F

Sunny.


Feels Like: 14 °F
Forecast: 25 / 31 °F
Wind: 8 mph from Southwest

Location: Pond Inlet

Current Time: May 29, 2016 at 11:23:55 AM

Latest Report: May 29, 2016 at 11:00 AM


Visibility: 9 mi

Pressure: 30.23 "Hg

Humidity: 86%

Dew Point: 19 °F

Location of Arctic BayLocation

Past Weather in Arctic Bay — Graph

°F

Arctic Bay Temperature Yesterday

Maximum temperature yesterday: 27 °F (at 1:00 PM)
Minimum temperature yesterday: 21 °F (at 1:00 AM)
Average temperature yesterday: 25 °F

High & Low Weather Summary for the Past Weeks

 TemperatureHumidityPressure
High37 °F (May 17, 5:00 PM)100% (May 16, 3:00 AM)30.28 "Hg (May 16, 3:00 AM)
Low10 °F (May 15, 3:00 AM)56% (May 24, 4:00 PM)29.46 "Hg (May 21, 7:00 PM)
Average27 °F84%29.82 "Hg
* Reported May 14 10:00 AM — May 29 10:00 AM, Arctic Bay, Weather by CustomWeather, © 2016

Note: Actual official high and low records may vary slightly from our data, if they occured in-between our weather recording intervals... More about our weather records

Advertising

Arctic Bay Weather History for the Previous 24 Hours

Scroll right to see more
 ConditionsComfort  
Time TempWeatherWind HumidityBarometerVisibility
10:00 AM
Sun, May 29
23 °FSunny.7 mph86%30.23 "Hg9 mi
9:00 AM23 °FSunny.8 mph86%30.23 "Hg9 mi
8:00 AM21 °FSunny.6 mph86%30.23 "Hg9 mi
7:00 AM25 °FSunny.7 mph80%30.22 "Hg9 mi
6:00 AM23 °FSunny.10 mph80%30.22 "Hg9 mi
5:00 AM23 °FSunny.9 mph80%30.21 "Hg9 mi
4:00 AM23 °FPartly sunny.7 mph80%30.21 "Hg9 mi
3:00 AM23 °FPartly sunny.8 mph80%30.20 "Hg9 mi
2:46 AM21 °FPartly sunny.8 mph80%30.20 "Hg9 mi
2:00 AM19 °FScattered clouds.8 mph86%30.20 "Hg9 mi
1:00 AM21 °FSunny.7 mph80%30.19 "Hg9 mi
12:00 AM23 °FPartly sunny.3 mph80%30.18 "Hg9 mi
11:00 PM
Sat, May 28
25 °FOvercast.5 mph80%30.18 "Hg9 mi
10:00 PM27 °FOvercast.3 mph80%30.17 "Hg9 mi
9:00 PM27 °FOvercast.2 mph86%30.16 "Hg9 mi
8:00 PM27 °FOvercast.3 mph86%30.16 "Hg8 mi
7:00 PM27 °FOvercast.5 mph80%30.15 "Hg9 mi
6:00 PM27 °FOvercast.3 mph80%30.13 "Hg9 mi
5:00 PM27 °FMostly cloudy.3 mph86%30.12 "Hg35 mi
4:00 PM27 °FOvercast.5 mph86%30.11 "Hg35 mi
3:00 PM27 °FOvercast.7 mph80%30.10 "Hg35 mi
2:00 PM27 °FOvercast.3 mph80%30.09 "Hg35 mi
1:00 PM27 °FOvercast.5 mph80%30.08 "Hg9 mi
12:00 PM25 °FOvercast.6 mph86%30.06 "Hg9 mi
11:00 AM25 °FOvercast.7 mph86%30.05 "Hg9 mi
Weather by CustomWeather, © 2016

See weather overviewHow to use our weather pages